| time (UTC) | temp F | wind direction | speed MPH | gust MPH | rain 1hr in | rain 24hr in | rain mn in | humidity % | barometer mb |
| 20260506210033 | 92 | 217 | 7.0 | 14.0 | 0.00 | 0.00 | 0.00 | 39 | 1015.0 |
| 20260506205004 | 92 | 190 | 8.0 | 13.0 | 0.00 | 0.00 | 0.00 | 39 | 1015.0 |
| 20260506204511 | 92 | 207 | 8.0 | 13.0 | 0.00 | 0.00 | 0.00 | 41 | 1015.0 |
| 20260506204005 | 91 | 166 | 4.0 | 8.0 | 0.00 | 0.00 | 0.00 | 41 | 1015.0 |
| 20260506203005 | 91 | 308 | 1.0 | 9.0 | 0.00 | 0.00 | 0.00 | 41 | 1015.1 |
| 20260506202503 | 91 | 197 | 4.0 | 13.0 | 0.00 | 0.00 | 0.00 | 42 | 1015.2 |
| 20260506202001 | 91 | 259 | 8.0 | 13.0 | 0.00 | 0.00 | 0.00 | 41 | 1015.2 |
| 20260506195503 | 91 | 173 | 5.0 | 10.0 | 0.00 | 0.00 | 0.00 | 42 | 1015.6 |
| 20260506194526 | 90 | 266 | 7.0 | 12.0 | 0.00 | 0.00 | 0.00 | 40 | 1015.7 |
| 20260506193510 | 90 | 287 | 7.0 | 11.0 | 0.00 | 0.00 | 0.00 | 42 | 1015.7 |
| 20260506192004 | 90 | 255 | 8.0 | 14.0 | 0.00 | 0.00 | 0.00 | 45 | 1016.0 |
| 20260506191010 | 89 | 188 | 4.0 | 16.0 | 0.00 | 0.00 | 0.00 | 47 | 1016.3 |
| 20260506184526 | 89 | 209 | 4.0 | 8.0 | 0.00 | 0.00 | 0.00 | 47 | 1016.5 |
| 20260506183507 | 89 | 243 | 3.0 | 9.0 | 0.00 | 0.00 | 0.00 | 48 | 1016.6 |
| 20260506183025 | 89 | 186 | 5.0 | 12.0 | 0.00 | 0.00 | 0.00 | 48 | 1016.6 |
| 20260506182510 | 89 | 197 | 7.0 | 15.0 | 0.00 | 0.00 | 0.00 | 50 | 1016.6 |
| 20260506182008 | 89 | 245 | 6.0 | 15.0 | 0.00 | 0.00 | 0.00 | 47 | 1016.8 |
| 20260506180504 | 88 | 203 | 10.0 | 16.0 | 0.00 | 0.00 | 0.00 | 47 | 1017.0 |
| 20260506180009 | 88 | 207 | 5.0 | 9.0 | 0.00 | 0.00 | 0.00 | 46 | 1017.0 |
| 20260506175004 | 87 | 205 | 3.0 | 17.0 | 0.00 | 0.00 | 0.00 | 48 | 1017.2 |
| 20260506174005 | 87 | 161 | 3.0 | 12.0 | 0.00 | 0.00 | 0.00 | 50 | 1017.2 |
| 20260506173509 | 87 | 184 | 3.0 | 12.0 | 0.00 | 0.00 | 0.00 | 49 | 1017.3 |
| 20260506172013 | 86 | 212 | 6.0 | 12.0 | 0.00 | 0.00 | 0.00 | 52 | 1017.6 |
| 20260506171516 | 86 | 221 | 8.0 | 12.0 | 0.00 | 0.00 | 0.00 | 53 | 1017.7 |
| 20260506170513 | 85 | 190 | 6.0 | 11.0 | 0.00 | 0.00 | 0.00 | 53 | 1017.9 |
| 20260506165004 | 85 | 243 | 7.0 | 14.0 | 0.00 | 0.00 | 0.00 | 54 | 1017.9 |
| 20260506164508 | 85 | 255 | 7.0 | 14.0 | 0.00 | 0.00 | 0.00 | 54 | 1018.0 |
| 20260506164006 | 85 | 289 | 5.0 | 15.0 | 0.00 | 0.00 | 0.00 | 55 | 1018.0 |
| 20260506163510 | 85 | 238 | 10.0 | 15.0 | 0.00 | 0.00 | 0.00 | 56 | 1018.0 |
| 20260506163011 | 85 | 217 | 10.0 | 15.0 | 0.00 | 0.00 | 0.00 | 56 | 1018.0 |
| 20260506162504 | 84 | 212 | 9.0 | 15.0 | 0.00 | 0.00 | 0.00 | 56 | 1018.2 |
| 20260506162009 | 84 | 215 | 5.0 | 13.0 | 0.00 | 0.00 | 0.00 | 57 | 1018.2 |
| 20260506160513 | 83 | 200 | 7.0 | 13.0 | 0.00 | 0.00 | 0.00 | 58 | 1018.1 |
| 20260506160028 | 83 | 212 | 8.0 | 13.0 | 0.00 | 0.00 | 0.00 | 60 | 1018.1 |
| 20260506155510 | 83 | 231 | 8.0 | 14.0 | 0.00 | 0.00 | 0.00 | 58 | 1018.1 |
| 20260506154504 | 82 | 193 | 5.0 | 15.0 | 0.00 | 0.00 | 0.00 | 59 | 1018.3 |
| 20260506154007 | 82 | 189 | 6.0 | 14.0 | 0.00 | 0.00 | 0.00 | 59 | 1018.3 |
| 20260506153003 | 82 | 166 | 9.0 | 15.0 | 0.00 | 0.00 | 0.00 | 62 | 1018.3 |
| 20260506152501 | 81 | 198 | 7.0 | 19.0 | 0.00 | 0.00 | 0.00 | 61 | 1018.4 |
| 20260506152002 | 81 | 203 | 13.0 | 19.0 | 0.00 | 0.00 | 0.00 | 61 | 1018.4 |
| 20260506151503 | 81 | 215 | 3.0 | 14.0 | 0.00 | 0.00 | 0.00 | 61 | 1018.2 |
| 20260506151002 | 81 | 226 | 7.0 | 16.0 | 0.00 | 0.00 | 0.00 | 62 | 1018.2 |
| 20260506150503 | 80 | 211 | 11.0 | 16.0 | 0.00 | 0.00 | 0.00 | 62 | 1018.1 |
| 20260506150005 | 80 | 196 | 12.0 | 17.0 | 0.00 | 0.00 | 0.00 | 62 | 1018.1 |
| 20260506145502 | 80 | 180 | 8.0 | 17.0 | 0.00 | 0.00 | 0.00 | 63 | 1018.2 |
| 20260506145004 | 80 | 207 | 11.0 | 17.0 | 0.00 | 0.00 | 0.00 | 64 | 1018.2 |
| 20260506144504 | 79 | 214 | 7.0 | 14.0 | 0.00 | 0.00 | 0.00 | 64 | 1018.2 |
| 20260506144002 | 79 | 218 | 9.0 | 14.0 | 0.00 | 0.00 | 0.00 | 64 | 1018.2 |
| 20260506143503 | 79 | 226 | 9.0 | 17.0 | 0.00 | 0.00 | 0.00 | 63 | 1018.3 |
| 20260506143008 | 79 | 236 | 8.0 | 17.0 | 0.00 | 0.00 | 0.00 | 64 | 1018.3 |
| 20260506142506 | 79 | 218 | 3.0 | 15.0 | 0.00 | 0.00 | 0.00 | 65 | 1018.2 |
| 20260506142003 | 78 | 206 | 9.0 | 16.0 | 0.00 | 0.00 | 0.00 | 64 | 1018.1 |
| 20260506141502 | 78 | 228 | 7.0 | 16.0 | 0.00 | 0.00 | 0.00 | 66 | 1018.1 |
| 20260506141004 | 78 | 218 | 10.0 | 16.0 | 0.00 | 0.00 | 0.00 | 66 | 1018.1 |
| 20260506140502 | 77 | 157 | 7.0 | 13.0 | 0.00 | 0.00 | 0.00 | 67 | 1018.1 |
| 20260506140004 | 77 | 180 | 9.0 | 15.0 | 0.00 | 0.00 | 0.00 | 66 | 1018.1 |
| 20260506135506 | 76 | 190 | 9.0 | 15.0 | 0.00 | 0.00 | 0.00 | 69 | 1018.0 |
| 20260506135003 | 76 | 202 | 9.0 | 15.0 | 0.00 | 0.00 | 0.00 | 69 | 1018.0 |
| 20260506134504 | 76 | 200 | 10.0 | 16.0 | 0.00 | 0.00 | 0.00 | 71 | 1018.0 |
| 20260506134003 | 75 | 143 | 9.0 | 16.0 | 0.00 | 0.00 | 0.00 | 73 | 1018.2 |
| 20260506133504 | 74 | 193 | 9.0 | 16.0 | 0.00 | 0.00 | 0.00 | 73 | 1018.2 |
| 20260506133006 | 74 | 182 | 12.0 | 16.0 | 0.00 | 0.00 | 0.00 | 74 | 1018.2 |
| 20260506132506 | 74 | 193 | 10.0 | 16.0 | 0.00 | 0.00 | 0.00 | 74 | 1018.2 |
| 20260506132003 | 73 | 200 | 10.0 | 15.0 | 0.00 | 0.00 | 0.00 | 74 | 1018.2 |
| 20260506131003 | 72 | 218 | 9.0 | 13.0 | 0.00 | 0.00 | 0.00 | 75 | 1018.2 |
| 20260506130506 | 71 | 191 | 6.0 | 11.0 | 0.00 | 0.00 | 0.00 | 77 | 1018.0 |
| 20260506130003 | 71 | 178 | 5.0 | 8.0 | 0.00 | 0.00 | 0.00 | 77 | 1018.1 |
| 20260506125503 | 70 | 200 | 6.0 | 8.0 | 0.00 | 0.00 | 0.00 | 77 | 1018.1 |
| 20260506125004 | 69 | 195 | 5.0 | 8.0 | 0.00 | 0.00 | 0.00 | 78 | 1018.0 |
| 20260506124503 | 69 | 192 | 5.0 | 8.0 | 0.00 | 0.00 | 0.00 | 79 | 1017.9 |
| 20260506123005 | 66 | 186 | 4.0 | 6.0 | 0.00 | 0.00 | 0.00 | 83 | 1017.8 |
| 20260506122504 | 65 | 188 | 4.0 | 6.0 | 0.00 | 0.00 | 0.00 | 85 | 1017.8 |
| 20260506122003 | 64 | 198 | 2.0 | 4.0 | 0.00 | 0.00 | 0.00 | 86 | 1017.7 |
| 20260506121003 | 63 | 145 | 1.0 | 2.0 | 0.00 | 0.00 | 0.00 | 89 | 1017.6 |
| 20260506120507 | 62 | 179 | 0.0 | 2.0 | 0.00 | 0.00 | 0.00 | 89 | 1017.6 |
| 20260506115002 | 61 | 162 | 1.0 | 2.0 | 0.00 | 0.00 | 0.00 | 90 | 1017.3 |
| 20260506114503 | 61 | 163 | 1.0 | 2.0 | 0.00 | 0.00 | 0.00 | 91 | 1017.3 |
| 20260506114005 | 60 | 153 | 1.0 | 2.0 | 0.00 | 0.00 | 0.00 | 91 | 1017.2 |
| 20260506113504 | 60 | 174 | 1.0 | 2.0 | 0.00 | 0.00 | 0.00 | 91 | 1017.2 |
| 20260506113006 | 60 | 174 | 1.0 | 2.0 | 0.00 | 0.00 | 0.00 | 91 | 1017.3 |
| 20260506112505 | 59 | 173 | 1.0 | 1.0 | 0.00 | 0.00 | 0.00 | 91 | 1017.3 |
| 20260506112004 | 59 | 165 | 0.0 | 2.0 | 0.00 | 0.00 | 0.00 | 91 | 1017.3 |
| 20260506111505 | 59 | 168 | 1.0 | 2.0 | 0.00 | 0.00 | 0.00 | 91 | 1017.3 |
| 20260506111004 | 59 | 184 | 0.0 | 2.0 | 0.00 | 0.00 | 0.00 | 91 | 1017.3 |
| 20260506110504 | 58 | 183 | 1.0 | 2.0 | 0.00 | 0.00 | 0.00 | 90 | 1017.4 |
| 20260506110011 | 58 | 178 | 0.0 | 2.0 | 0.00 | 0.00 | 0.00 | 90 | 1017.2 |
| 20260506105504 | 58 | 179 | 0.0 | 2.0 | 0.00 | 0.00 | 0.00 | 90 | 1017.1 |
| 20260506103006 | 59 | 168 | 0.0 | 0.0 | 0.00 | 0.00 | 0.00 | 89 | 1016.8 |
| 20260506102504 | 59 | 168 | 0.0 | 0.0 | 0.00 | 0.00 | 0.00 | 89 | 1016.9 |
| 20260506102004 | 59 | 168 | 0.0 | 2.0 | 0.00 | 0.00 | 0.00 | 89 | 1016.8 |
| 20260506101516 | 59 | 168 | 0.0 | 2.0 | 0.00 | 0.00 | 0.00 | 89 | 1016.9 |
| 20260506101004 | 59 | 168 | 0.0 | 2.0 | 0.00 | 0.00 | 0.00 | 89 | 1016.8 |
| 20260506100504 | 60 | 163 | 1.0 | 2.0 | 0.00 | 0.00 | 0.00 | 89 | 1016.7 |
| 20260506100014 | 60 | 179 | 1.0 | 2.0 | 0.00 | 0.00 | 0.00 | 89 | 1016.8 |
| 20260506095506 | 59 | 174 | 2.0 | 2.0 | 0.00 | 0.00 | 0.00 | 90 | 1016.7 |
| 20260506094005 | 59 | 188 | 1.0 | 2.0 | 0.00 | 0.00 | 0.00 | 89 | 1016.7 |
| 20260506093022 | 59 | 176 | 0.0 | 1.0 | 0.00 | 0.00 | 0.00 | 89 | 1016.8 |
| 20260506092504 | 59 | 176 | 1.0 | 1.0 | 0.00 | 0.00 | 0.00 | 89 | 1016.8 |
| 20260506092007 | 59 | 171 | 1.0 | 1.0 | 0.00 | 0.00 | 0.00 | 89 | 1016.7 |
| 20260506091505 | 59 | 171 | 0.0 | 1.0 | 0.00 | 0.00 | 0.00 | 89 | 1016.7 |
| 20260506091005 | 59 | 171 | 0.0 | 0.0 | 0.00 | 0.00 | 0.00 | 89 | 1016.6 |
| 20260506090504 | 60 | 171 | 0.0 | 2.0 | 0.00 | 0.00 | 0.00 | 88 | 1016.7 |
| 20260506090014 | 60 | 171 | 0.0 | 2.0 | 0.00 | 0.00 | 0.00 | 88 | 1016.5 |
| 20260506085505 | 60 | 171 | 0.0 | 1.0 | 0.00 | 0.00 | 0.00 | 88 | 1016.5 |
| 20260506085004 | 60 | 171 | 1.0 | 2.0 | 0.00 | 0.00 | 0.00 | 88 | 1016.4 |
| 20260506084511 | 60 | 176 | 0.0 | 2.0 | 0.00 | 0.00 | 0.00 | 88 | 1016.5 |
| 20260506084002 | 60 | 176 | 0.0 | 2.0 | 0.00 | 0.00 | 0.00 | 88 | 1016.5 |
| 20260506083503 | 60 | 179 | 0.0 | 2.0 | 0.00 | 0.00 | 0.00 | 88 | 1016.5 |
| 20260506083004 | 61 | 182 | 0.0 | 2.0 | 0.00 | 0.00 | 0.00 | 87 | 1016.6 |
| 20260506082503 | 60 | 184 | 0.0 | 2.0 | 0.00 | 0.00 | 0.00 | 87 | 1016.7 |
| 20260506082003 | 61 | 174 | 1.0 | 2.0 | 0.00 | 0.00 | 0.00 | 87 | 1016.7 |
| 20260506081506 | 61 | 184 | 1.0 | 2.0 | 0.00 | 0.00 | 0.00 | 87 | 1016.6 |
| 20260506081004 | 61 | 175 | 0.0 | 2.0 | 0.00 | 0.00 | 0.00 | 87 | 1016.7 |
| 20260506080504 | 61 | 171 | 0.0 | 2.0 | 0.00 | 0.00 | 0.00 | 87 | 1016.7 |
| 20260506073508 | 61 | 203 | 0.0 | 2.0 | 0.00 | 0.00 | 0.00 | 87 | 1016.5 |
| 20260506073033 | 61 | 200 | 1.0 | 2.0 | 0.00 | 0.00 | 0.00 | 86 | 1016.5 |
| 20260506072504 | 61 | 178 | 1.0 | 2.0 | 0.00 | 0.00 | 0.00 | 87 | 1016.4 |
| 20260506072003 | 61 | 191 | 1.0 | 3.0 | 0.00 | 0.00 | 0.00 | 87 | 1016.4 |
| 20260506071505 | 61 | 187 | 1.0 | 4.0 | 0.00 | 0.00 | 0.00 | 87 | 1016.3 |
| 20260506071006 | 61 | 184 | 2.0 | 4.0 | 0.00 | 0.00 | 0.00 | 87 | 1016.4 |
| 20260506070503 | 61 | 160 | 2.0 | 3.0 | 0.00 | 0.00 | 0.00 | 88 | 1016.4 |
| 20260506062507 | 60 | 160 | 0.0 | 2.0 | 0.00 | 0.00 | 0.00 | 88 | 1017.1 |
| 20260506062010 | 60 | 160 | 1.0 | 2.0 | 0.00 | 0.00 | 0.00 | 88 | 1017.1 |
| 20260506061520 | 60 | 160 | 1.0 | 1.0 | 0.00 | 0.00 | 0.00 | 88 | 1017.1 |
| 20260506061004 | 60 | 160 | 1.0 | 1.0 | 0.00 | 0.00 | 0.00 | 88 | 1017.2 |
| 20260506060504 | 60 | 160 | 0.0 | 1.0 | 0.00 | 0.00 | 0.00 | 87 | 1017.3 |
| 20260506051008 | 61 | 179 | 1.0 | 2.0 | 0.00 | 0.00 | 0.00 | 87 | 1017.7 |
| 20260506050510 | 61 | 174 | 0.0 | 2.0 | 0.00 | 0.00 | 0.00 | 87 | 1017.7 |
| 20260506045003 | 62 | 178 | 0.0 | 2.0 | 0.00 | 0.00 | 0.00 | 86 | 1017.7 |
| 20260506044531 | 62 | 178 | 0.0 | 0.0 | 0.00 | 0.00 | 0.00 | 86 | 1017.8 |
| 20260506044003 | 62 | 178 | 0.0 | 2.0 | 0.00 | 0.00 | 0.00 | 86 | 1017.9 |
| 20260506043505 | 62 | 178 | 0.0 | 2.0 | 0.00 | 0.00 | 0.00 | 85 | 1017.9 |
| 20260506043017 | 62 | 178 | 0.0 | 2.0 | 0.00 | 0.00 | 0.00 | 85 | 1017.9 |
| 20260506042504 | 62 | 178 | 0.0 | 2.0 | 0.00 | 0.00 | 0.00 | 85 | 1017.9 |
| 20260506042011 | 62 | 178 | 0.0 | 0.0 | 0.00 | 0.00 | 0.00 | 84 | 1017.9 |
| 20260506041519 | 62 | 178 | 0.0 | 2.0 | 0.00 | 0.00 | 0.00 | 85 | 1018.0 |
| 20260506041009 | 62 | 178 | 0.0 | 2.0 | 0.00 | 0.00 | 0.00 | 1017.9 | |
| 20260506040508 | 62 | 178 | 0.0 | 2.0 | 0.00 | 0.00 | 0.00 | 1017.9 | |
| 20260506040022 | 62 | 178 | 0.0 | 2.0 | 0.00 | 0.00 | 0.00 | 1017.8 | |
| 20260506035511 | 63 | 176 | 1.0 | 2.0 | 0.00 | 0.00 | 0.00 | 83 | 1017.8 |
| 20260506035011 | 63 | 165 | 1.0 | 2.0 | 0.00 | 0.00 | 0.00 | 83 | 1017.9 |
| 20260506034518 | 63 | 165 | 0.0 | 2.0 | 0.00 | 0.00 | 0.00 | 83 | 1018.0 |
| 20260506034005 | 63 | 165 | 0.0 | 2.0 | 0.00 | 0.00 | 0.00 | 83 | 1018.0 |
| 20260506033504 | 63 | 165 | 0.0 | 0.0 | 0.00 | 0.00 | 0.00 | 82 | 1018.0 |
| 20260506033012 | 63 | 165 | 0.0 | 1.0 | 0.00 | 0.00 | 0.00 | 82 | 1018.2 |
| 20260506032507 | 64 | 165 | 0.0 | 1.0 | 0.00 | 0.00 | 0.00 | 82 | 1018.1 |
| 20260506032007 | 64 | 165 | 0.0 | 2.0 | 0.00 | 0.00 | 0.00 | 81 | 1018.0 |
| 20260506031517 | 64 | 165 | 0.0 | 2.0 | 0.00 | 0.00 | 0.00 | 81 | 1018.0 |
| 20260506031009 | 64 | 165 | 0.0 | 1.0 | 0.00 | 0.00 | 0.00 | 80 | 1017.9 |
| 20260506030504 | 64 | 165 | 0.0 | 0.0 | 0.00 | 0.00 | 0.00 | 80 | 1017.9 |
| 20260506030003 | 65 | 165 | 0.0 | 0.0 | 0.00 | 0.00 | 0.00 | 80 | 1017.9 |
| 20260506025503 | 65 | 165 | 0.0 | 0.0 | 0.00 | 0.00 | 0.00 | 80 | 1017.9 |
| 20260506025003 | 65 | 165 | 0.0 | 0.0 | 0.00 | 0.00 | 0.00 | 80 | 1017.7 |
| 20260506024502 | 65 | 165 | 0.0 | 0.0 | 0.00 | 0.00 | 0.00 | 79 | 1017.6 |
| 20260506024004 | 65 | 165 | 0.0 | 2.0 | 0.00 | 0.00 | 0.00 | 79 | 1017.6 |
| 20260506023504 | 66 | 165 | 0.0 | 2.0 | 0.00 | 0.00 | 0.00 | 78 | 1017.5 |
| 20260506023002 | 66 | 165 | 0.0 | 2.0 | 0.00 | 0.00 | 0.00 | 77 | 1017.4 |
| 20260506022502 | 66 | 165 | 0.0 | 2.0 | 0.00 | 0.00 | 0.00 | 76 | 1017.5 |
| 20260506022002 | 67 | 165 | 0.0 | 2.0 | 0.00 | 0.00 | 0.00 | 76 | 1017.4 |
| 20260506021503 | 67 | 165 | 0.0 | 2.0 | 0.00 | 0.00 | 0.00 | 76 | 1017.4 |
| 20260506021002 | 67 | 165 | 0.0 | 2.0 | 0.00 | 0.00 | 0.00 | 75 | 1017.3 |
| 20260506020503 | 67 | 178 | 0.0 | 2.0 | 0.00 | 0.00 | 0.00 | 74 | 1017.3 |
| 20260506020004 | 67 | 184 | 1.0 | 2.0 | 0.00 | 0.00 | 0.00 | 74 | 1017.2 |
| 20260506015504 | 68 | 187 | 1.0 | 2.0 | 0.00 | 0.00 | 0.00 | 74 | 1017.1 |
| 20260506015011 | 68 | 108 | 1.0 | 2.0 | 0.00 | 0.00 | 0.00 | 74 | 1017.1 |
| 20260506014504 | 68 | 148 | 0.0 | 2.0 | 0.00 | 0.00 | 0.00 | 73 | 1017.0 |
| 20260506014003 | 68 | 117 | 0.0 | 2.0 | 0.00 | 0.00 | 0.00 | 73 | 1016.9 |
| 20260506013504 | 68 | 70 | 0.0 | 2.0 | 0.00 | 0.00 | 0.00 | 72 | 1016.8 |
| 20260506013002 | 69 | 153 | 0.0 | 2.0 | 0.00 | 0.00 | 0.00 | 72 | 1016.8 |
| 20260506012502 | 69 | 188 | 1.0 | 2.0 | 0.00 | 0.00 | 0.00 | 71 | 1016.9 |
| 20260506012001 | 69 | 123 | 0.0 | 3.0 | 0.00 | 0.00 | 0.00 | 71 | 1016.8 |
| 20260506011507 | 69 | 160 | 1.0 | 3.0 | 0.00 | 0.00 | 0.00 | 70 | 1016.7 |
| 20260506011005 | 70 | 156 | 1.0 | 2.0 | 0.00 | 0.00 | 0.00 | 70 | 1016.7 |
| 20260506010503 | 70 | 155 | 0.0 | 2.0 | 0.00 | 0.00 | 0.00 | 69 | 1016.7 |
| 20260506010005 | 70 | 186 | 0.0 | 3.0 | 0.00 | 0.00 | 0.00 | 68 | 1016.6 |
| 20260506005503 | 70 | 89 | 1.0 | 3.0 | 0.00 | 0.00 | 0.00 | 68 | 1016.7 |
| 20260506005002 | 71 | 198 | 0.0 | 2.0 | 0.00 | 0.00 | 0.00 | 67 | 1016.7 |
| 20260506004504 | 71 | 6 | 0.0 | 4.0 | 0.00 | 0.00 | 0.00 | 67 | 1016.6 |
| 20260506004003 | 71 | 117 | 0.0 | 4.0 | 0.00 | 0.00 | 0.00 | 66 | 1016.6 |
| 20260506003504 | 72 | 73 | 0.0 | 2.0 | 0.00 | 0.00 | 0.00 | 66 | 1016.5 |
| 20260506003009 | 72 | 150 | 0.0 | 3.0 | 0.00 | 0.00 | 0.00 | 65 | 1016.6 |
| 20260506002506 | 72 | 158 | 1.0 | 3.0 | 0.00 | 0.00 | 0.00 | 64 | 1016.6 |
| 20260506002004 | 72 | 159 | 1.0 | 4.0 | 0.00 | 0.00 | 0.00 | 63 | 1016.6 |
| 20260506001502 | 73 | 139 | 1.0 | 4.0 | 0.00 | 0.00 | 0.00 | 62 | 1016.6 |
| 20260506001002 | 73 | 115 | 1.0 | 3.0 | 0.00 | 0.00 | 0.00 | 62 | 1016.6 |
| 20260506000507 | 74 | 82 | 1.0 | 4.0 | 0.00 | 0.00 | 0.00 | 61 | 1016.6 |
| 20260506000003 | 74 | 141 | 1.0 | 4.0 | 0.00 | 0.00 | 0.00 | 60 | 1016.5 |
| 20260505235504 | 75 | 75 | 2.0 | 5.0 | 0.00 | 0.00 | 0.00 | 59 | 1016.4 |
| 20260505235003 | 75 | 221 | 2.0 | 7.0 | 0.00 | 0.00 | 0.00 | 58 | 1016.5 |
| 20260505234508 | 75 | 84 | 1.0 | 8.0 | 0.00 | 0.00 | 0.00 | 58 | 1016.5 |
| 20260505234003 | 75 | 103 | 3.0 | 8.0 | 0.00 | 0.00 | 0.00 | 57 | 1016.5 |
| 20260505233503 | 76 | 83 | 2.0 | 10.0 | 0.00 | 0.00 | 0.00 | 56 | 1016.4 |
| 20260505233008 | 76 | 63 | 1.0 | 10.0 | 0.00 | 0.00 | 0.00 | 56 | 1016.5 |
| 20260505232503 | 76 | 124 | 3.0 | 10.0 | 0.00 | 0.00 | 0.00 | 55 | 1016.3 |
| 20260505232005 | 76 | 161 | 2.0 | 8.0 | 0.00 | 0.00 | 0.00 | 53 | 1016.4 |
| 20260505231513 | 76 | 117 | 3.0 | 9.0 | 0.00 | 0.00 | 0.00 | 52 | 1016.5 |
| 20260505231003 | 77 | 125 | 5.0 | 9.0 | 0.00 | 0.00 | 0.00 | 51 | 1016.5 |
| 20260505230502 | 77 | 154 | 1.0 | 10.0 | 0.00 | 0.00 | 0.00 | 51 | 1016.4 |
| 20260505230006 | 77 | 87 | 4.0 | 10.0 | 0.00 | 0.00 | 0.00 | 50 | 1016.3 |
| 20260505225503 | 78 | 117 | 3.0 | 9.0 | 0.00 | 0.00 | 0.00 | 50 | 1016.4 |
| 20260505225004 | 78 | 193 | 3.0 | 8.0 | 0.00 | 0.00 | 0.00 | 49 | 1016.4 |
| 20260505224503 | 78 | 129 | 2.0 | 8.0 | 0.00 | 0.00 | 0.00 | 49 | 1016.2 |
| 20260505224002 | 78 | 86 | 4.0 | 11.0 | 0.00 | 0.00 | 0.00 | 49 | 1016.3 |
| 20260505223505 | 79 | 86 | 5.0 | 11.0 | 0.00 | 0.00 | 0.00 | 49 | 1016.3 |
| 20260505223005 | 79 | 155 | 4.0 | 9.0 | 0.00 | 0.00 | 0.00 | 49 | 1016.3 |
| 20260505222506 | 79 | 110 | 2.0 | 10.0 | 0.00 | 0.00 | 0.00 | 49 | 1016.2 |
| 20260505222004 | 79 | 105 | 1.0 | 10.0 | 0.00 | 0.00 | 0.00 | 49 | 1016.1 |
| 20260505221512 | 79 | 70 | 3.0 | 12.0 | 0.00 | 0.00 | 0.00 | 50 | 1016.0 |
| 20260505221011 | 79 | 81 | 5.0 | 12.0 | 0.00 | 0.00 | 0.00 | 49 | 1016.0 |
| 20260505220503 | 79 | 120 | 6.0 | 13.0 | 0.00 | 0.00 | 0.00 | 48 | 1016.1 |
| 20260505220024 | 79 | 110 | 8.0 | 13.0 | 0.00 | 0.00 | 0.00 | 48 | 1016.1 |
| 20260505215503 | 79 | 161 | 4.0 | 13.0 | 0.00 | 0.00 | 0.00 | 48 | 1016.2 |
| 20260505215003 | 79 | 152 | 8.0 | 13.0 | 0.00 | 0.00 | 0.00 | 48 | 1016.1 |
| 20260505214523 | 79 | 150 | 5.0 | 11.0 | 0.00 | 0.00 | 0.00 | 47 | 1016.1 |
| 20260505214003 | 80 | 150 | 7.0 | 10.0 | 0.00 | 0.00 | 0.00 | 47 | 1016.2 |
| 20260505213503 | 80 | 150 | 5.0 | 12.0 | 0.00 | 0.00 | 0.00 | 47 | 1016.2 |
| 20260505213004 | 80 | 162 | 5.0 | 12.0 | 0.00 | 0.00 | 0.00 | 47 | 1016.2 |
| 20260505212508 | 81 | 180 | 8.0 | 12.0 | 0.00 | 0.00 | 0.00 | 47 | 1016.2 |
| 20260505212010 | 81 | 134 | 4.0 | 11.0 | 0.00 | 0.00 | 0.00 | 48 | 1016.2 |
| 20260505211506 | 81 | 148 | 7.0 | 14.0 | 0.00 | 0.00 | 0.00 | 47 | 1016.2 |
| 20260505211006 | 81 | 179 | 3.0 | 14.0 | 0.00 | 0.00 | 0.00 | 47 | 1016.3 |